Location: Unspecified
(0.0000°N, 0.0000°E)
Time: 21:11:25
(UTC+00:00)

GALILEO 9 (205) - Pass Details

Date: 10 December 2022
Orbit: 23203 x 23241 km, 55.5° (Epoch: 05 February)

Event Time Altitude Azimuth Distance (km) Brightness Sun altitude
Rises 11:39:14 0° 214° (SW) 28,917 ? 66.8°
Reaches altitude 10° 12:14:15 10° 217° (SW) 27,820 ? 66.5°
Maximum altitude 21:49:50 52° 92° (E) 24,344 ? -52.3°
Drops below altitude 10° 00:43:39 10° 149° (SSE) 27,833 ? -63.9°
Sets 01:18:53 0° 148° (SSE) 28,921 ? -59.0°
